Regional Weather Roundup
Issued by NWS Cleveland, OH

Home | Current Version | Previous Version | Text Only | Print | Product List | Glossary On
Versions: 1 2 3 4 5 6 7 8 9 10 11 12 13 14 15 16 17 18 19 20 21 22 23 24 25 26 27 28 29 30 31 32 33 34 35 36 37 38 39 40 41 42 43 44 45 46 47 48 49 50
000
ASUS41 KCLE 301410
RWRCLE
OHIO REGIONAL WEATHER ROUNDUP
NATIONAL WEATHER SERVICE WILMINGTON, OH
1000 AM EDT SAT AUG 30 2014

NOTE: "FAIR" INDICATES FEW OR NO CLOUDS BELOW 12,000 FEET WITH NO
SIGNIFICANT WEATHER AND/OR OBSTRUCTIONS TO VISIBILITY.

OHZ001>008-015>018-024>027-034-035-043-044-301500-
   NORTHWEST OHIO

CITY           SKY/WX    TMP DP  RH WIND       PRES   REMARKS
DEFIANCE       PTSUNNY   79  65  62 S12G21    29.97S
FINDLAY        PTSUNNY   80  67  64 S12       30.00S
TOLEDO EXPRESS MOSUNNY   78  65  63 SW12G22   29.97S
TOLEDO METCALF MOSUNNY   79  65  62 S15       29.99F
LIMA           CLOUDY    77  67  71 S10       30.02S
$$

OHZ009>014-019>023-028>033-038-089-301500-
   NORTHEAST OHIO

CITY           SKY/WX    TMP DP  RH WIND       PRES   REMARKS
CLE-HOPKINS    MOSUNNY   77  65  66 S14       30.06S
CLE-LAKEFRONT  SUNNY     78  64  61 S12       30.02S
CUY CO. ARPT   MOSUNNY   81  68  65 SW14      30.05F
LORAIN-ELYRIA  SUNNY     80  66  62 SW10      30.04F
ASHTABULA      SUNNY     73  64  73 S9        30.08S
AKRON-CANTON   MOSUNNY   77  66  68 SW10      30.09S
WOOSTER        SUNNY     75  67  76 SW9       30.08F
MANSFIELD      SUNNY     78  66  66 S10       30.07F
YOUNGSTOWN     MOSUNNY   73  64  73 S8        30.10S
$$

OHZ042-051>053-060>062-070>072-077>081-301500-
  SOUTHWEST OHIO

CITY           SKY/WX    TMP DP  RH WIND       PRES   REMARKS
CINC-COVINGTON PTSUNNY   78  65  63 S9        30.06S
CINC-LUNKEN    MOSUNNY   78  69  73 S6        30.06S
HAMILTON       PTSUNNY   78  70  76 VRB5      30.06S
DAYTON         PTSUNNY   78  67  68 SW12      30.06S
WRIGHT-PAT AFB MOSUNNY   78  69  73 S8        30.05S
DAYTON GENERAL MOSUNNY   77  68  73 S12       30.06S
WILMINGTON     SUNNY     78  67  68 S10       30.08S
$$

OHZ036-037-039>041-045>050-054>059-063>069-073>076-082>088-301500-
  CENTRAL AND SOUTHEAST OHIO

CITY           SKY/WX    TMP DP  RH WIND       PRES   REMARKS
COLUMBUS       PTSUNNY   81  67  62 S7        30.07S
OSU AIRPORT    SUNNY     80  66  62 S8        30.06F
BOLTON FIELD   SUNNY     77  70  78 S7        30.07F
RICKENBACK AFB SUNNY     80  65  59 S12       30.07S
NEWARK         SUNNY     77  70  79 SW7       30.08S
MARION         MOSUNNY   78  67  68 S10       30.05F
LANCASTER      SUNNY     80  68  66 SW9       30.09S
ZANESVILLE     SUNNY     77  69  76 S9        30.10S
NEW PHILLY     SUNNY     76  70  82 S3        30.10S
$$


USA.gov is the U.S. government's official web portal to all federal, state and local government web resources and services.